STARLINK-5710, 55616

Orbit data source: Space-Track

STARLINK-5710, 55616 is a payload satellite owned by SpaceX/Seattle (US) in LEO that was launched on Sun, 12 Feb 2023 UTC via an FALCON 9 launch vehicle from the Air Force Eastern Test Range (AFETR). Payload-class satellites include a variety of spacecraft equipped with specific instruments for various scientific and technological missions. These include communications satellites like Starlink; space stations such as the ISS; scientific satellites like the Hubble; Earth observation satellites from companies like Planet Labs, Umbra, and HawkEye 360; GPS; miniature CubeSats for education and research; and military/defense satellites.

Loading next visibility...
Identifier
55616, 2023-020AZ
Orbit
LEO
Country
Flag of USUS
Related business
Manufacturer
SpaceX/Seattle
Mission
Operational Commercial Communications
Bus & Motor
STARLINK, Unknown motor
Mass
305 kg wet, ~290 kg dry
Launch date (UTC)
2023-02-12 (4 years ago)
Launch vehicle
FALCON 9
Launch site
Air Force Eastern Test Range (AFETR)
Object type
Payload
Rocket body
Debris
Shape & HBR
Box + 1 Pan, 10.1 m
Radar Cross Section
13.562 m², Large (>1 m²)

Expand to show TLE details & history
Last TLE update: 1 day ago

TLE from 1 day ago
0 STARLINK-5710
1 55616U 23020AZ  26264.66699761  .00000642  00000-0  32842-4 0  9995
2 55616  43.0021 327.2726 0001060 272.8630  87.2100 15.27576994199012
Epoch: 2026-09-21T16:00Z
TLE epoch observation values (Epoch: 2026-09-21T16:00:28.593Z)
Latitude
-0.00004°
Longitude
86.60987°
Altitude
482.798 km
Speed
7.626 km/s
True Right ascension
21h 49m 05s
True Declination
0° 00' 00"
Sunlit
Object was in full shadow at epoch
Visualization orbit readout
Latitude
Unknown
Longitude
Unknown
Altitude
Unknown
Speed
Unknown
Apparent Right ascension
Unknown
Apparent Declination
Unknown
Sunlit
N/A
Visualization observer readout
Local Sidereal Time
12:41:52
Azimuth
Unknown
Elevation
Unknown
Doppler factor
Unknown
Orbital elements
Apogee altitude
485.73 km
Perigee altitude
484.275 km
Semi-major axis
6,863.14 km
Eccentricity
0.00011
Inclination
43.0021°
RAAN
327.2726°
Arg. of periapsis
272.863°
True anomaly
87.22213°
Mean anomaly
87.21°
Eccentric anomaly
87.21607°
Mean motion
3.81732 °/min
Orbital period
94.31 mins
BSTAR
0.000032842
Loading maneuver chart data...
Computing Atmospheric mass density...
Loading historical data...
Loading historical data...
Loading historical data...
Loading historical data...
Loading historical data...
Loading historical data...
Loading historical data...

Documentation

Showing up to 5 results
|